Location: Andechy
(49.7144°N, 2.7089°E)
Time: 07:20:50
(UTC+00:00)

Daily predictions for brighter satellites

Satellite Brightness Start Highest point End
(mag) Time Altitude Azimuth Time Altitude Azimuth Time Altitude Azimuth
Cosmos 1821 Rocket 4.4 19:47:06 10° SSE 19:52:51 44° E 19:58:41 10° NNE
COSMOS 2406 3.5 19:49:00 10° S 19:54:27 46° ESE 19:59:54 10° NE
Cosmos 1743 Rocket 3.7 19:51:20 10° S 19:55:47 89° WNW 20:00:18 10° N
CZ-2C R/B 3.9 19:51:21 10° NNE 19:55:55 52° E 20:00:21 10° S
SL-16 R/B 4.2 19:52:33 10° N 19:56:16 17° NE 19:59:58 10° ENE
Cosmos 2366 rocket 4.2 19:50:26 10° SSW 19:56:41 81° W 20:02:55 10° N
Intercosmos 25 3.8 19:52:37 10° N 19:57:22 49° ENE 20:00:44 10° SSE
MOS 1 Rocket 4.4 19:52:17 10° N 19:57:39 59° WNW 20:02:55 10° SSW
Lacrosse 5 3.1 19:54:43 10° WNW 19:59:28 38° N 20:04:13 10° ENE
ERS-1 Rocket 4.5 19:56:55 10° ESE 20:00:44 22° ENE 20:04:34 10° N
Cosmos 2369 4.0 19:56:31 10° NNW 20:02:12 58° NE 20:07:50 10° SE
Cosmos 1862 3.4 20:00:02 10° S 20:04:01 60° E 20:08:02 10° NNE
Sich 1 3.5 20:00:49 10° SSE 20:04:59 42° E 20:09:11 10° NNE
Meteor 2-6 Rocket 4.3 20:00:55 10° NNW 20:06:25 82° W 20:12:02 10° S
SJ-6B 4.2 20:02:36 10° S 20:06:26 40° W 20:10:15 10° NNW
Cosmos 1818 3.6 20:01:20 10° NW 20:06:50 84° NE 20:12:17 10° SE
BREEZE-M DEB (TANK) 1.9 20:03:52 10° WSW 20:07:38 74° S 20:09:37 10° E
IRIDIUM 106 4.3 20:03:46 10° S 20:08:56 70° E 20:14:09 10° N
Cosmos 2082 Rocket 3.2 20:05:07 10° SSE 20:09:47 27° ESE 20:14:26 10° NE
Cosmos 2278 4.2 20:05:53 10° NNW 20:11:26 48° NE 20:16:44 11° SE
Cosmos 2123 Rocket 4.4 20:06:01 10° N 20:11:58 45° ENE 20:17:56 10° SE
Cosmos 1500 Rocket 4.2 20:10:57 10° SSW 20:15:12 60° WNW 20:19:31 10° N
Spot 2 Rocket 3.9 20:11:36 10° SE 20:16:28 48° ENE 20:21:22 10° N
Cosmos 2322 Rocket 4.1 20:14:49 10° N 20:18:54 20° NE 20:22:58 10° E
Meteor 1-4 Rocket 3.2 20:16:30 10° N 20:19:46 36° ENE 20:22:26 14° SE
Resurs 1-3 4.2 20:15:49 10° S 20:20:09 59° W 20:24:30 10° NNW
Cosmos 1190 Rocket 4.5 20:17:38 10° S 20:22:31 40° ESE 20:27:28 10° NE
Cosmos 1184 Rocket 4.4 20:21:01 14° SE 20:22:36 18° E 20:24:57 10° NE
CZ-2C R/B 3.2 20:18:32 10° N 20:23:39 61° WNW 20:28:45 10° SSW
Terra 3.4 20:21:08 10° ESE 20:24:38 22° ENE 20:28:15 10° N
USA 234 3.3 20:18:46 10° ESE 20:25:18 82° NNE 20:31:52 10° WNW
Cosmos 407 Rocket 3.7 20:20:16 10° S 20:25:25 51° ESE 20:30:32 10° NNE
Cosmos 1666 Rocket 3.9 20:22:27 10° SSE 20:26:34 46° E 20:30:43 10° NNE
Cosmos 1238 Rocket 4.1 20:28:02 13° E 20:28:35 13° E 20:30:08 10° NE
Meteor 1-27 Rocket 3.9 20:24:34 10° N 20:30:31 83° ENE 20:36:28 10° SSE
MetOp-B 4.1 20:26:04 10° SSE 20:31:25 81° ENE 20:36:49 10° NNW
Cosmos 2360 Rocket 4.4 20:29:22 10° N 20:32:50 16° NNE 20:36:15 10° ENE
BREEZE-M DEB (TANK) 4.1 20:32:50 10° W 20:36:22 17° WSW 20:38:33 10° SSW
ERBS 3.5 20:33:45 10° W 20:36:57 43° NNW 20:40:08 10° NE
USA 238 DEB 4.4 20:32:44 10° S 20:38:13 28° ESE 20:43:51 10° ENE
Cosmos 1805 Rocket 3.9 20:33:53 10° SSW 20:38:18 70° W 20:42:46 10° N
USA 238 4.4 20:32:52 10° S 20:38:19 28° ESE 20:43:57 10° ENE
SPOT 5 3.6 20:35:55 16° ESE 20:38:48 33° ENE 20:42:43 10° N
Cosmos 1980 Rocket 2.3 20:37:01 10° NNW 20:42:43 69° ENE 20:47:05 17° SE
SPOT 1/Viking Rocket 3.6 20:39:53 14° SSE 20:44:19 67° ENE 20:49:31 10° N
SL-4 R/B 2.3 20:44:00 10° SW 20:47:37 36° SSE 20:51:01 10° E
Genesis I 3.3 20:44:26 10° NW 20:48:18 68° NE 20:50:44 22° SE
BREEZE-M DEB (TANK) 2.3 20:45:45 10° WSW 20:48:25 78° SSE 20:55:16 10° E
Cosmos 405 Rocket 4.0 20:49:22 20° ESE 20:50:21 22° E 20:53:18 10° NE
Cosmos 1140 Rocket 3.5 20:45:52 10° S 20:51:02 65° ESE 20:56:15 10° NNE
ATLAS 5 CENTAUR R/B 3.5 20:45:57 10° WNW 20:51:10 36° WSW 20:57:05 10° S
Cosmos 389 Rocket 4.4 20:51:08 10° NW 20:54:03 26° W 20:56:58 10° SSW
Cosmos 1023 Rocket 4.4 20:50:18 10° SSW 20:55:33 72° ESE 21:00:50 10° NNE
Cosmos 1812 4.3 20:53:39 10° NNW 20:57:08 33° W 21:00:35 10° SSW
USA 32 4.2 20:53:02 14° SSE 20:57:21 57° E 21:02:29 10° NNE
Cosmos 1697 Rocket 3.2 20:52:52 10° NW 20:58:22 56° WSW 21:03:04 14° S
Cosmos 1633 Rocket 3.0 20:55:24 10° S 20:59:49 83° E 21:04:16 10° NNE
Cosmos 1833 Rocket 2.7 20:54:31 10° SSW 21:00:09 87° WNW 21:05:50 10° NNE
Cosmos 1867 3.7 21:01:15 10° SSW 21:06:28 50° ESE 21:11:44 10° NE
Meteor 1-18 Rocket 4.5 21:01:00 10° N 21:06:31 52° ENE 21:09:50 23° SE
Okean 1-7 4.0 21:02:47 10° N 21:06:43 32° ENE 21:08:30 23° ESE
CENTAUR R/B 3.5 21:04:45 21° SE 21:06:52 25° ESE 21:12:14 10° ENE
Resurs 01 Rocket 3.4 21:06:29 10° SSW 21:10:19 29° W 21:14:12 10° NW
Landsat 7 4.3 21:08:59 15° S 21:12:55 59° W 21:17:38 10° NNW
FALCON 9 DEB 3.5 21:10:02 10° SW 21:13:21 42° SSE 21:15:22 20° E
Cosmos 1515 4.4 21:13:35 10° N 21:17:12 38° ENE 21:18:22 30° ESE
deb Kosmos-1763 3.9 21:14:16 14° SSW 21:17:21 83° ESE 21:21:01 10° NNE
Cosmos 676 Rocket 4.0 21:14:38 10° SSW 21:19:56 72° ESE 21:25:16 10° NNE
Cosmos 192 4.4 21:15:13 10° NNW 21:20:08 77° WSW 21:22:57 26° SSE
ATLAS 5 CENTAUR R/B 3.0 21:18:11 10° NNW 21:20:24 29° NE 21:23:25 15° E
IGS 5A 4.4 21:17:35 15° SSW 21:20:45 44° W 21:24:44 10° NNW
Meteor 1-25 Rocket 4.1 21:17:53 16° S 21:22:17 72° E 21:27:54 10° NNE
Cosmos 1470 Rocket 3.5 21:19:31 20° S 21:22:32 81° E 21:26:57 10° NNE
Cosmos 1934 Rocket 4.3 21:18:17 10° SSW 21:24:37 71° WNW 21:31:01 10° N
Aureole 1 Rocket 4.4 21:18:57 10° SSW 21:25:49 87° ESE 21:34:11 10° NNE
GP-B 3.6 21:22:42 10° N 21:27:05 57° W 21:30:40 15° SSW
USA 267 3.3 21:25:21 10° ENE 21:31:55 82° NNW 21:38:28 10° WSW
NOSS 3-2 (A) 3.4 21:26:53 10° SSW 21:32:28 58° ESE 21:38:52 10° NE
Cosmos 921 Rocket 3.0 21:28:52 10° NNW 21:33:07 76° WSW 21:34:51 34° S
Cosmos 1862 Rocket 4.4 21:30:59 10° NNW 21:35:18 47° W 21:38:10 19° SSW
NOSS 3-2 (C) 3.7 21:35:51 26° S 21:38:29 41° ESE 21:44:30 10° NE
ERS-1 Rocket 3.3 21:36:09 24° S 21:39:07 63° WSW 21:44:07 10° NNW
Cosmos 841 Rocket 4.2 21:34:42 10° NNW 21:39:41 42° ENE 21:42:00 27° ESE
SAR-Lupe-2 3.5 21:36:53 10° NNE 21:40:30 83° WNW 21:41:55 35° SSW
Cosmos 540 Rocket 4.2 21:36:12 10° NNW 21:41:07 41° ENE 21:43:22 27° ESE
SL-16 R/B 2.4 21:35:55 10° NNW 21:41:35 62° ENE 21:44:17 31° SE
Lacrosse 5 1.9 21:37:54 10° NW 21:43:01 76° NNE 21:45:31 30° ESE
Cosmos 468 Rocket 4.0 21:38:03 10° NNW 21:43:25 86° ENE 21:45:45 35° SSE
Cosmos 1741 Rocket 4.2 21:48:23 36° SSE 21:50:09 51° ESE 21:55:16 10° NNE
Cosmos 1570 Rocket 4.4 21:45:49 10° NNW 21:51:02 53° ENE 21:53:10 33° ESE
Cosmos 2219 Rocket 4.2 21:47:57 10° N 21:52:09 21° NE 21:56:21 10° E
Cosmos 1954 Rocket 4.4 21:48:01 10° SSW 21:53:19 66° WNW 21:58:38 10° NNE
Cosmos 2082 Rocket 2.7 21:47:51 10° SW 21:53:29 60° WNW 21:59:07 10° NNE
Terra 2.2 22:00:02 33° SSW 22:02:00 59° W 22:06:44 10° NNW
Aureole 2 4.4 22:03:02 71° S 22:03:23 85° ESE 22:07:21 10° NNE
Cosmos 1933 Rocket 4.1 22:01:23 24° SSW 22:03:49 56° WNW 22:08:12 10° N
Cosmos 2322 Rocket 2.2 21:58:16 10° NNW 22:03:58 74° ENE 22:06:13 38° SE
Okean 1 4.2 22:01:55 10° NNW 22:05:46 43° W 22:07:07 32° SW
Cosmos 1238 Rocket 4.0 22:06:53 22° WSW 22:07:55 27° WNW 22:10:32 10° NNW
Cosmos 2100 Rocket 3.9 22:05:35 35° S 22:08:20 72° E 22:14:29 10° NNE
Cosmos 1602 4.5 22:06:47 29° SW 22:08:27 49° WNW 22:12:17 10° N
USA 234 3.9 22:06:06 28° S 22:08:42 39° SW 22:14:46 10° WNW
Cosmos 1437 Rocket 3.1 22:06:26 10° NNW 22:10:11 55° W 22:10:50 47° SW
Meteor 1-11 Rocket 4.3 22:09:09 35° ESE 22:10:25 40° E 22:15:44 10° NNE
Cosmos 1242 Rocket 4.2 22:09:09 10° NNE 22:12:06 23° ENE 22:12:07 23° ENE
Cosmos 1869 Rocket 3.5 22:13:01 55° S 22:13:56 78° E 22:18:24 10° NNE
SPOT 5 4.1 22:15:08 22° SW 22:16:56 29° W 22:20:46 10° NW
Cosmos 2360 Rocket 2.6 22:12:33 10° NNW 22:18:09 55° NE 22:20:20 35° ESE
COSMOS 2428 4.4 22:14:02 10° NNW 22:18:49 26° NE 22:22:37 14° E
MTI 4.2 22:15:56 10° NNE 22:18:29 57° NNE 22:18:29 57° NNE
JB-3 4.5 22:15:49 10° N 22:19:48 73° WNW 22:20:44 51° SW
ATLAS 3B R/B 3.3 22:21:12 33° ESE 22:21:37 33° ESE 22:27:25 10° NE
Geosat 3.9 22:20:48 48° SSE 22:22:14 88° SW 22:27:19 10° NNW
Iridium 4 Rocket 2.9 22:21:45 59° S 22:22:33 90° ESE 22:26:48 10° N
Cosmos 1703 Rocket 4.5 22:18:51 10° NNW 22:22:57 41° W 22:24:15 32° SW
Cosmos 2173 Rocket 3.9 22:21:11 36° S 22:23:54 86° E 22:30:04 10° N
Cosmos 1500 3.0 22:25:10 79° WSW 22:25:18 82° W 22:29:05 10° N
CRYOSAT 2 4.5 22:21:09 10° NNE 22:25:58 57° E 22:26:46 50° SE
Cosmos 1980 Rocket 3.9 22:21:52 10° NW 22:26:11 23° WSW 22:28:51 16° SW
Cosmos 405 Rocket 4.3 22:24:29 20° WSW 22:26:12 30° WNW 22:29:33 10° N
SL-4 R/B 1.7 22:23:17 10° W 22:27:04 78° NNW 22:27:13 75° NNE
ALOS 2 3.5 22:27:44 34° E 22:28:28 36° ENE 22:32:29 10° N
USA 238 DEB 3.8 22:21:51 10° SW 22:28:32 77° NW 22:35:32 10° NE
USA 238 3.8 22:21:58 10° SW 22:28:38 77° NW 22:35:38 10° NE
Cosmos 1725 Rocket 4.2 22:27:20 41° SE 22:29:15 56° E 22:35:26 10° NNE
Cosmos 1763 Rocket 4.1 22:24:26 10° NNW 22:29:33 48° WSW 22:31:09 36° SSW
Cosmos 1674 Rocket 4.3 22:28:46 10° N 22:32:51 39° ENE 22:33:13 38° E
Cosmos 1536 3.4 22:34:39 45° ENE 22:34:39 45° ENE 22:38:07 10° NNE
Cosmos 1666 3.0 22:37:32 54° ENE 22:37:32 54° ENE 22:40:45 10° NNE
Cosmos 2333 Rocket 3.3 22:33:09 10° NNW 22:38:32 38° NE 22:41:18 24° E
Cosmos 1356 4.4 22:41:30 40° NE 22:41:30 40° NE 22:43:57 10° NNE
Cosmos 1271 Rocket 4.2 22:37:37 10° N 22:40:47 26° ENE 22:40:47 26° ENE
Meteor 1-13 Rocket 4.1 22:36:21 10° NNW 22:41:54 80° W 22:43:23 50° S
Cosmos 2016 Rocket 4.0 22:39:51 43° S 22:42:08 82° E 22:48:32 10° N
Cosmos 2237 Rocket 4.4 22:38:16 10° N 22:42:14 19° NE 22:46:10 10° E
Meteor 1-5 Rocket 4.3 22:40:38 40° SSW 22:42:59 83° WNW 22:48:59 10° N
Cosmos 2061 Rocket 3.9 22:41:23 44° S 22:43:31 83° E 22:49:45 10° N
Lacrosse 4 Rocket 3.5 22:45:24 16° ENE 22:45:24 16° ENE 22:46:48 10° ENE
Okean 1-7 4.5 22:40:29 10° NNW 22:44:13 28° W 22:45:21 25° WSW
MOS 1-B Rocket 3.7 22:39:06 10° NNE 22:44:52 88° ESE 22:46:43 45° SSW
Cosmos 1459 Rocket 4.2 22:42:36 33° SSW 22:45:35 70° WNW 22:51:58 10° N
Cosmos 2221 Rocket 3.5 22:41:32 10° NNW 22:46:00 77° W 22:46:29 68° SSW
Okean 3 3.8 22:45:55 10° NNW 22:50:08 56° W 22:50:30 53° WSW
Cosmos 1733 Rocket 3.1 22:50:59 63° E 22:50:59 63° E 22:55:21 10° NNE
Cosmos 1066 Rocket 4.2 22:46:39 10° N 22:52:26 76° ENE 22:53:46 53° SSE
SL-27 R/B 3.3 22:53:08 45° NW 22:53:08 45° NW 22:56:05 10° NNE
Meteor 1-23 Rocket 4.3 22:48:22 10° N 22:54:14 76° ENE 22:55:43 52° SSE
Cosmos 1864 Rocket 4.4 22:53:22 47° S 22:55:20 86° E 23:01:37 10° N
Thor Agena Rocket 3.4 22:50:59 10° NNE 22:56:05 81° ESE 22:56:59 61° S
CENTAUR R/B 2.6 22:51:50 18° SW 22:56:39 80° NW 23:03:59 10° NE
Cosmos 967 Rocket 4.5 22:53:06 10° NW 22:59:27 69° WSW 23:01:03 50° S
Cosmos 44 3.5 22:56:27 10° NW 23:01:14 55° WSW 23:01:33 54° SW
Cosmos 1802 Rocket 4.3 22:58:41 35° SSW 23:01:30 66° WNW 23:07:51 10° N
Spot 4 4.1 23:06:33 51° SW 23:07:09 55° W 23:11:54 10° NNW
Cosmos 1378 3.6 23:09:18 10° N 23:12:29 58° NNE 23:12:29 58° NNE
USA 267 4.1 23:08:21 10° ENE 23:14:36 50° N 23:20:52 10° W
Cosmos 2233 Rocket 3.9 23:14:31 51° S 23:16:12 80° E 23:22:34 10° NNE
Cosmos 1842 4.5 23:14:15 10° N 23:17:41 33° ENE 23:17:41 33° ENE
Cosmos 1908 Rocket 4.1 23:18:33 46° E 23:18:33 46° E 23:22:29 10° NNE
Cosmos 540 Rocket 4.5 23:18:02 10° NW 23:22:37 33° WSW 23:23:10 32° WSW
SL-16 R/B 3.5 23:20:42 10° NW 23:25:15 25° WSW 23:26:08 24° WSW
Lacrosse 5 3.1 23:21:17 10° WNW 23:24:41 27° WSW 23:24:41 27° WSW
Cosmos 2322 3.6 23:22:47 10° NNW 23:28:29 86° WSW 23:29:31 62° SSE
Cosmos 1378 Rocket 3.5 23:24:23 10° NNW 23:28:49 76° W 23:28:49 76° W
NOSS 3-2 (C) 4.2 23:23:27 10° WSW 23:29:15 53° NW 23:35:57 10° NE
Cosmos 1833 4.1 23:28:44 61° SSW 23:29:46 83° ESE 23:35:28 10° NNE
COSMOS 2487 3.6 23:32:14 39° NNE 23:32:14 39° NNE 23:34:33 10° NNE
Cosmos 2084 Rocket 4.1 23:35:29 42° W 23:36:26 52° NW 23:40:41 10° NE
Cosmos 2219 Rocket 2.2 23:31:19 10° NNW 23:37:03 79° ENE 23:38:19 55° SE
EO 1 Del DPAF 4.3 23:36:27 10° N 23:39:56 38° WNW 23:39:56 38° WNW
Cosmos 1975 Rocket 3.4 23:37:50 10° N 23:42:16 54° ENE 23:42:25 54° E
Cosmos 2333 4.2 23:37:07 10° NNW 23:42:54 70° WSW 23:43:44 61° SSW
Cosmos 1503 Rocket 4.3 23:45:55 50° ESE 23:46:13 51° ESE 23:51:24 10° NNE
Cosmos 1242 Rocket 4.3 23:43:50 10° NNW 23:46:08 25° WNW 23:46:08 25° WNW
Cosmos 2322 Rocket 3.8 23:43:17 10° NW 23:47:26 21° W 23:48:01 21° WSW
YAOGAN 11 4.1 23:48:26 75° ESE 23:48:38 77° ENE 23:53:15 10° NNW
Helios 1A 3.0 23:49:48 79° NNW 23:49:48 79° NNW 23:53:49 10° NNW
ERBS 4.0 23:47:48 10° NW 23:50:49 31° NNE 23:51:02 31° NNE
SL-16 R/B 4.3 23:46:25 10° ESE 23:51:20 25° NE 23:56:15 10° N
SL-16 R/B 4.3 23:48:08 10° NNW 23:52:35 23° NE 23:57:01 10° E
Cosmos 1486 Rocket 3.8 23:52:11 69° SSW 23:52:50 87° WNW 23:58:05 10° NNE
CZ-2D R/B 4.5 23:51:02 10° ENE 23:53:03 12° E 23:54:54 10° ESE
Cosmos 1544 3.8 23:54:38 51° NNE 23:54:38 51° NNE 23:57:28 10° NNE
Sich 1 Rocket 4.3 23:55:31 41° E 23:55:31 41° E 23:59:29 10° NNE
